Weather Roundup
Issued by NWS Springfield, MO

Home | Current Version | Previous Version | Text Only | Print | Product List | Glossary On
Versions: 1 2 3 4 5 6 7 8 9 10 11 12 13 14 15 16 17 18 19 20 21 22 23 24 25 26 27 28 29 30 31 32 33 34 35 36 37 38 39 40 41 42 43 44 45 46 47 48 49 50
000
NZUS99 KSGF 300607
HRRSGF

HOURLY WEATHER
NATIONAL WEATHER SERVICE SPRINGFIELD MO
100 AM CDT WED JUL 30 2014

......SGF CWA......

CITY           SKY/WX    TMP DP  RH WIND       PRES   REMARKS
SPRINGFIELD    CLOUDY    71  60  68 CALM      30.10S
6HR MIN TEMP:  69; 6HR MAX TEMP:  81;

JOPLIN         CLOUDY    67  62  84 CALM      30.10F
6HR MIN TEMP:  65; 6HR MAX TEMP:  80;

WEST PLAINS    MOCLDY    66  58  75 SE3       30.13S
6HR MIN TEMP:  65; 6HR MAX TEMP:  80;

ROLLA          MOCLDY    67  54  63 E3        30.10S
6HR MIN TEMP:  65; 6HR MAX TEMP:  80;

OSAGE BEACH    CLEAR     63  55  77 CALM      30.10F
BRANSON          N/A     66  59  77 SW3       30.11F

......SURROUNDING SGF CWA......

CITY           SKY/WX    TMP DP  RH WIND       PRES   REMARKS
CHANUTE        MOCLDY    67  62  84 CALM      30.10S
PARSONS        MOCLDY    67  62  84 CALM      30.10F
COFFEYVILLE    MOCLDY    70  65  84 NE5       30.08F
EMPORIA        CLOUDY    65  60  84 SE5       30.11S
GROVE OK       CLOUDY    70  64  83 CALM      30.10S
ROGERS AR      MOCLDY    66  61  84 CALM      30.12F
SILOAM SPRINGS MOCLDY    66  57  72 CALM      30.11F
HARRISON AR    PTCLDY    65  62  90 CALM      30.11F
NEAR YELLVILLE CLEAR     66  61  82 E3        30.10S

......KANSAS AND MISSOURI......

CITY           SKY/WX    TMP DP  RH WIND       PRES   REMARKS
KANSAS CTY INT PTCLDY    68  59  73 NE5       30.11F
DOWNTOWN KC    PTCLDY    72  58  61 NE3       30.10S
COLUMBIA       MOCLDY    68  56  65 SE5       30.11S
SEDALIA        CLEAR     65  57  75 CALM      30.11S
ST JOSEPH      CLEAR     61  59  93 N3        30.12S
ST LOUIS       PTCLDY    68  57  68 CALM      30.11R
SPIRIT OF STL  CLOUDY    62  58  86 CALM      30.10R
KIRKSVILLE     MOCLDY    59  57  93 CALM      30.12S
WICHITA        MOCLDY    72  61  68 E10       30.09S
TOPEKA         CLOUDY    70  63  78 CALM      30.12R
OLATHE         MOCLDY    71  58  63 E3        30.11S

......TENNESSEE......

CITY           SKY/WX    TMP DP  RH WIND       PRES   REMARKS
MEMPHIS        CLEAR     67  56  67 CALM      30.10F
NASHVILLE      CLEAR     63  56  78 CALM      30.10S

......ARKANSAS.......

CITY           SKY/WX    TMP DP  RH WIND       PRES   REMARKS
FAYETTEVILLE   PTCLDY    63  61  93 S3        30.11F
FT SMITH       MOCLDY    73  68  84 E6        30.07S
LITTLE ROCK    MOCLDY    71  60  68 CALM      30.09F

......OKLAHOMA.......

CITY           SKY/WX    TMP DP  RH WIND       PRES   REMARKS
TULSA          CLOUDY    75  66  73 CALM      30.05F
PONCA CITY     CLOUDY    72  64  76 CALM      30.08S
MCALESTER      CLOUDY    77  66  68 E3        30.07F
OKLAHOMA CITY  CLOUDY    72  66  81 E5        30.09F

......IOWA............

CITY           SKY/WX    TMP DP  RH WIND       PRES   REMARKS
DES MOINES     CLEAR     63  56  78 CALM      30.10S
QUAD CITIES    CLEAR     62  58  86 CALM      30.06R

......ILLINOIS........

CITY           SKY/WX    TMP DP  RH WIND       PRES   REMARKS
QUINCY         CLEAR     63  57  81 W3        30.09S
CHICAGO        PTCLDY    61  55  81 W5        30.01S




USA.gov is the U.S. government's official web portal to all federal, state and local government web resources and services.